View from above orbital plane
|
View from above satellite
|
Ground track
|
The orbit data is extracted from the following two-line orbital elements,
1 44242U 19029H 19344.25002315 -.00028771 00000-0 -16394-2 0 9998
2 44242 52.9994 352.5100 0001339 71.6635 291.0539 15.12143525 30311
Epoch (UTC): | 10 December 2019 06:00:02 |
Eccentricity: | 0.0001339 |
inclination: | 52.9994° |
perigee height: | 529 km |
apogee height: | 530 km |
right ascension of ascending node: | 352.5100° |
argument of perigee: | 71.6635° |
revolutions per day: | 15.12143525 |
mean anomaly at epoch: | 291.0539° |
orbit number at epoch: | 3031 |
The dashed part of the orbit path shows where the satellite is in the earth's shadow,
|
|